Regional Weather Roundup
Issued by NWS

Home | Current Version | Previous Version | Graphics & Text | Print | Product List | Glossary On
Versions: 1 2 3 4 5 6 7 8 9 10 11 12 13 14 15 16 17 18 19 20 21 22 23 24 25 26 27 28 29 30 31 32 33 34 35 36 37 38 39 40 41 42 43 44 45 46 47 48 49 50
000
ASUS43 KMPX 290810
RWRMN
WEATHER ROUNDUP FOR MINNESOTA
NATIONAL WEATHER SERVICE TWIN CITIES/CHANHASSEN MN
300 AM CDT SAT APR 29 2017


NOTE: "FAIR" INDICATES FEW OR NO CLOUDS BELOW 12,000 FEET WITH NO
SIGNIFICANT WEATHER AND/OR OBSTRUCTIONS TO VISIBILITY. N/A MEANS
CURRENT SKY AND/OR WEATHER CONDITIONS ARE NOT AVAILABLE.

MNZ060>063-068>070-290900-
   Twin Cities Metro

CITY           SKY/WX    TMP DP  RH WIND       PRES   REMARKS
TWIN CITIES    CLOUDY    42  27  55 NE9       30.22R
ST PAUL        CLOUDY    41  28  60 N7        30.23R
CRYSTAL        CLOUDY    40  24  53 NE12      30.21R
LAKEVILLE      CLOUDY    39  28  65 NE9       30.19R
EDEN PRAIRIE   PTCLDY    43  27  53 NE10      30.20R
SOUTH ST PAUL  PTCLDY    41  28  60 N3        30.22R
LAKE ELMO      FAIR      37  30  75 N7        30.23R
$$
MNZ001>005-007-008-013>017-022>024-027-028-290900-
   Northwest Minnesota

CITY           SKY/WX    TMP DP  RH WIND       PRES   REMARKS
BEMIDJI        CLEAR     24  19  80 CALM      30.21S
HALLOCK        CLEAR     28  25  86 NE3       30.23S
ROSEAU         CLEAR     28  18  64 CALM      30.24R
WARROAD        CLEAR     27  21  80 CALM      30.24R
THIEF RVR FALL CLEAR     33  16  49 NE3       30.23S
CROOKSTON      CLEAR     36  23  60 E3        30.23S
FOSSTON        CLEAR     25  16  68 CALM      30.22S
DETROIT LAKES  CLEAR     32  30  93 CALM      30.22R
MOORHEAD       CLEAR     30  25  80 CALM      30.23S
PARK RAPIDS    CLEAR     28  18  66 CALM      30.20R
MAHNOMEN       FAIR      30  26  83 CALM      30.21S
$$
MNZ006-009>011-018-025>026-290900-
   North Central Minnesota

CITY           SKY/WX    TMP DP  RH WIND       PRES   REMARKS
BAUDETTE       CLEAR     27  21  78 NW3       30.21R
FLAG ISLAND    CLEAR     36  21  55 NW5       30.22R
INTL FALLS     CLEAR     23  20  88 CALM      30.22R
WASKISH        CLEAR     27  25  93 CALM      30.22R
BIG FORK       PTCLDY    25  21  86 CALM      30.20F
LONGVILLE      CLEAR     28  27  93 CALM      30.21R
GRAND RAPIDS   CLEAR     25  22  88 S5        30.23R WCI  19
CRANE LAKE     CLEAR     19  19 100 CALM      30.23R
ORR            CLEAR     25  19  80 CALM      30.19R
COOK           CLEAR     23  21  93 CALM      30.21S
WALKER         FAIR      28  23  82 CALM      30.21S
$$
MNZ012-019>021-037-290900-
   Northeast Minnesota

CITY           SKY/WX    TMP DP  RH WIND       PRES   REMARKS
DULUTH         CLEAR     29  24  82 CALM      30.20R
ELY            CLEAR     23  21  93 CALM      30.21R
HIBBING        CLEAR     23  21  92 CALM      30.20S
EVELETH        CLEAR     25  23  92 CALM      30.21S
DULUTH HARBOR  CLEAR     36  32  87 CALM      30.23F
TWO HARBORS    CLEAR     34  27  75 NW5       30.19S WCI  30
SILVER BAY     CLEAR     27  27 100 CALM      30.20R
GRAND MARAIS     N/A     34  25  69 NW8       30.21R WCI  27
G MARAIS ARPRT CLEAR     23  18  80 CALM      30.17R
$$
MNZ029>031-032-039>041-046>048-054>057-064-290900-
   West Central Minnesota

CITY           SKY/WX    TMP DP  RH WIND       PRES   REMARKS
FERGUS FALLS   CLEAR     34  21  60 NE5       30.22S WCI  30
WHEATON        CLEAR     34  28  80 CALM      30.24R
MORRIS         CLEAR     30  25  80 NE6       30.20S WCI  24
ALEXANDRIA     CLEAR     35  20  54 NE7       30.21R WCI  29
ELBOW LAKE     FAIR      35  25  66 NE3       30.21R
WADENA         CLEAR     27  21  80 CALM      30.21R
GLENWOOD       CLEAR     36  21  55 NE3       30.21R
APPLETON       CLOUDY    30  23  74 CALM      30.21S
BENSON         CLOUDY    30  19  64 CALM      30.22S
ORTONVILLE     CLEAR     32  23  69 NE6       30.21S WCI  26
MADISON        CLOUDY    37  28  70 CALM      30.21S
WILLMAR        FAIR      36  25  64 NE7       30.22R
$$
MNZ033>034-036-042>043-049>051-058-059-290900-
   Central Minnesota

CITY           SKY/WX    TMP DP  RH WIND       PRES   REMARKS
ST CLOUD       CLOUDY    37  25  61 NE3       30.22R
SAUK CENTRE    FAIR      35  21  56 NE5       30.21R WCI  31
PAYNESVILLE    CLOUDY    34  23  65 CALM      30.22R
AITKIN         CLEAR     28  25  86 CALM      30.20S
PINE RIVER     CLEAR     27  25  93 CALM      30.24R
BRAINERD       CLEAR     29  24  82 CALM      30.22R
STAPLES        CLEAR     27  21  80 CALM      30.22R
LONG PRAIRIE   FAIR      30  23  74 CALM      30.23R
LITTLE FALLS   CLEAR     28  23  80 CALM      30.22R
LITCHFIELD     CLOUDY    39  27  60 E5        30.22R
BUFFALO        PTCLDY    39  27  61 NE7       30.22R
MAPLE LAKE     PTCLDY    38  29  68 NE6       30.22R
HUTCHINSON     CLEAR     39  29  66 NE7       30.21R
$$
MNZ037-044-045-052-053-290900-
   East Central Minnesota

CITY           SKY/WX    TMP DP  RH WIND       PRES   REMARKS
PRINCETON      CLOUDY    37  27  65 CALM      30.23R
MORA           CLEAR     32  25  74 CALM      30.24R
CAMBRIDGE      CLOUDY    39  27  60 CALM      30.22R
RUSH CITY      CLEAR     34  26  74 N3        30.23R
MOOSE LAKE     CLEAR     28  27  93 CALM      30.19F
HINCKLEY       FAIR      32  28  86 CALM      30.23R
CLOQUET        CLEAR     27  21  80 CALM      30.20F
MCGREGOR       CLEAR     30  27  86 CALM      30.21S
$$
MNZ071>073-080-081-089-090-097-098-290900-
   Southwest Minnesota

CITY           SKY/WX    TMP DP  RH WIND       PRES   REMARKS
MONTEVIDEO     PTCLDY    34  21  60 CALM      30.21R
GRANITE FALLS  MOCLDY    36  27  68 N5        30.21S
CANBY          CLOUDY    33  27  77 CALM      30.21F
MARSHALL       CLOUDY    31  25  78 NW7       30.21S WCI  24
REDWOOD FALLS  CLOUDY    38  24  57 N5        30.19R
OLIVIA         MOCLDY    34  28  80 N6        30.18F WCI  29
PIPESTONE      MOCLDY    36  21  55 NE6       30.17S
WINDOM         PTCLDY    36  27  69 N9        30.16F
WORTHINGTON    PTCLDY    33  26  75 N12       30.17F WCI  24
JACKSON        CLOUDY    32  28  86 N3        30.15S
TRACY          CLOUDY    37  27  67 N8        30.20R
SLAYTON        CLOUDY    34  26  72 N7        30.19R WCI  28
$$
MNZ065>067-074>077-082>085-091>093-290900-
   South Central Minnesota

CITY           SKY/WX    TMP DP  RH WIND       PRES   REMARKS
MANKATO        CLOUDY    36  28  73 N10       30.15R
NEW ULM        CLOUDY    39  25  56 NE8       30.16F
ST JAMES       PTCLDY    34  30  86 NW7       30.16F WCI  28
FAIRMONT       PTCLDY    36  30  79 N7        30.15F
GLENCOE        CLOUDY    40  30  68 CALM      30.19R
FARIBAULT      CLOUDY    37  30  75 N9        30.16R
OWATONNA       MOCLDY    32  28  86 N5        30.13F WCI  27
WASECA         PTCLDY    32  30  93 N7        30.13F WCI  26
ALBERT LEA     PTCLDY    36  28  75 NE9       30.09F
$$
MNZ078>079-086>088-094>096-290900-
   Southeast Minnesota

CITY           SKY/WX    TMP DP  RH WIND       PRES   REMARKS
ROCHESTER      PTCLDY    34  30  85 N9        30.13F WCI  27
RED WING       CLOUDY    41  27  56 NE9       30.18R
STANTON        CLOUDY    37  32  81 N8        30.18R
DODGE CENTER   PTCLDY    36  30  80 N5        30.13R
WINONA         MOCLDY    37  34  87 NW5       30.14F
AUSTIN         CLOUDY    37  30  75 N6        30.10F
PRESTON        CLOUDY    36  30  80 N6        30.12R
$$
ABBREVIATIONS USED IN REMARKS
   TC - TEMPERATURES IN CELSIUS
  WCI - WIND CHILL INDEX
   HX - HEAT INDEX
  VSB - VISIBILITY
$$




USA.gov is the U.S. government's official web portal to all federal, state and local government web resources and services.